Lapse_Rate
6.8 7.7 6.5 7.1 7.7 7.1 7.8 7.4 6.8 6.1 6.4 6.1 6.2 6.6 7.0 6.3 6.6 6.6 5.7 5.8 5.9 5.6
5.8 7.0 6.1 6.3 6.8 7.2 6.6 8.2 6.8 5.7 5.9 5.8 6.6 6.1 6.5 7.1 6.2 7.1 6.4 5.1 4.6 5.1
4.3 5.4 6.1 5.6 6.3 6.4 7.3 6.3 7.1 5.6 5.8 6.0 6.3 7.0 6.5 6.7 6.5 6.4 6.8 6.6 4.6 3.8
5.6 4.8 5.0 6.2 5.6 6.5 6.3 6.9 6.2 6.8 6.1 5.9 6.0 6.4 6.9 6.5 6.7 6.4 6.1 6.7 6.3 4.2
5.3 4.9 4.2 4.5 5.5 5.4 6.4 6.0 6.9 6.3 6.8 6.6 6.2 6.0 6.1 6.1 6.9 7.0 6.3 5.8 6.3 5.7
6.6 5.7 5.3 4.3 4.1 5.3 5.3 6.0 5.9 6.7 6.4 6.6 6.5 5.7 5.8 5.7 5.7 6.2 7.0 6.4 5.8 6.2
7.7 7.0 6.8 6.1 5.0 4.5 5.2 4.5 5.4 5.4 6.0 6.5 6.0 5.7 5.7 5.8 5.4 5.1 5.9 6.9 7.0 6.2
6.9 7.4 7.2 7.0 6.7 6.2 5.2 4.8 4.0 4.8 5.3 5.6 6.5 6.3 5.1 5.7 5.6 5.4 5.0 5.6 6.9 7.0
6.1 6.3 7.0 7.2 7.0 6.5 5.5 5.4 5.4 4.7 5.0 5.3 6.0 3.5 0.9 3.8 5.4 5.7 5.4 5.5 5.9 7.0
5.8 5.8 5.9 6.3 6.6 6.7 6.5 6.1 5.5 5.9 5.7 4.6 4.7 0.3 -0.8 -0.1 4.9 5.5 5.8 5.4 5.6 6.6
5.7 5.4 5.8 5.8 6.1 6.4 6.8 6.5 6.0 5.9 5.7 5.7 4.6 -0.1 -2.0 -1.1 4.0 5.2 5.4 5.8 5.3 5.4
5.4 5.5 5.4 5.6 5.8 6.2 6.8 7.2 6.8 6.0 6.6 6.0 4.9 0.0 -1.2 -0.3 5.4 5.8 5.3 5.8 6.0 5.8
5.2 5.2 5.6 5.7 5.9 6.1 6.6 7.2 7.8 7.1 6.4 5.7 6.2 2.1 -1.0 0.5 7.0 6.5 6.4 6.6 6.2 2.3
5.0 5.2 5.7 5.9 6.5 6.7 7.1 7.5 7.0 7.2 7.3 6.7 6.1 6.2 -1.0 -1.6 6.7 7.6 7.8 7.9 7.8 7.8
Wind_Speed
14 11 12 9 9 8 8 9 11 13 11 10 12 9 7 7 6 6 5 5 4 3
17 15 14 12 10 8 8 6 8 15 13 12 10 10 8 6 9 5 7 7 5 4
20 18 14 14 11 12 9 10 4 15 14 13 12 10 11 8 7 9 6 6 8 6
18 19 18 14 15 12 13 8 11 10 14 13 13 12 11 11 10 11 11 8 8 11
19 19 20 19 17 16 12 14 10 11 11 12 14 13 14 14 13 11 13 13 10 12
20 20 20 19 19 17 17 14 16 13 13 14 14 15 15 14 14 13 11 13 13 10
20 20 18 17 18 19 17 18 17 17 15 15 16 16 16 16 15 16 14 12 13 13
20 19 18 18 18 18 19 19 19 17 18 17 16 15 17 17 17 17 16 15 13 14
20 19 19 18 18 18 20 19 18 19 18 19 15 20 21 20 17 17 17 16 15 14
18 19 20 19 19 20 19 18 19 19 19 21 20 20 22 23 18 17 17 18 16 15
15 18 18 19 19 18 17 19 18 18 19 19 18 18 20 22 22 18 19 19 20 19
13 15 17 19 20 18 17 17 18 17 18 20 20 17 18 16 18 20 21 19 20 20
14 15 17 18 17 16 14 16 14 17 18 19 19 16 17 18 14 18 17 18 20 21
13 15 14 13 13 13 14 13 15 16 15 17 17 18 16 20 16 18 14 15 15 16
Wind_Direction
217 199 218 228 199 220 200 198 184 193 185 187 186 205 205 181 208 186 196 208 205 283
205 211 209 224 222 200 223 212 184 184 188 188 193 190 207 204 189 208 187 195 195 212
200 204 210 205 223 219 206 224 212 179 187 187 192 193 199 201 214 196 196 198 190 203
201 203 208 213 204 218 219 212 220 185 187 190 192 198 202 208 204 202 202 199 193 197
202 203 205 210 214 205 212 213 223 200 193 191 195 200 206 208 217 209 204 205 206 192
208 207 209 206 212 210 207 217 210 213 204 199 200 202 206 211 214 228 220 211 205 209
210 212 210 211 208 212 213 209 217 214 205 207 207 207 208 208 214 216 228 215 207 207
207 208 211 209 211 210 213 218 213 216 218 211 211 212 209 210 211 216 219 225 210 207
202 204 206 211 209 209 213 216 217 216 216 218 216 209 202 206 213 213 218 221 224 215
199 203 204 205 210 212 213 212 218 220 219 221 221 211 201 201 214 214 216 218 217 220
197 200 201 204 210 213 212 215 216 219 221 226 227 214 205 200 215 219 220 218 218 218
197 199 199 206 207 210 214 215 218 221 222 226 232 214 204 193 216 226 226 221 220 219
208 205 207 205 207 209 214 219 218 225 226 228 235 221 203 194 221 231 232 230 230 219
207 213 208 206 202 208 213 219 221 229 229 233 233 234 202 192 219 232 236 237 234 231